Temp: 4.7°C   Baro: 1017.2mb
  Wind: 0.0mph   Dir: NNW (342°)
  Rain: 0.0mm (0.0mm/hr)
  Solar: 0W/m2  Hum: 83%

Historic data

Bath Spa Weather Station Historical Data
Daily Summary for February 10, 2021 Units:  Metric    English   Both
Daily Weekly Monthly Yearly Custom
  High: Low: Average:
Temperature: 13.7 °C 11.4 °C 12.5 °C
Dew Point: 12.5 °C 10.6 °C 11.6 °C
Humidity: 93% 88% 91%
Wind Speed: 7.1km/h 0km/h 1.6km/h
Wind Gust: 12.9km/h - -
Wind- - WSW
Pressure: 1023.9 hPa 1021.6 hPa -
Precipitation: 0.25 mm    
Historical Graphs
 
 
Tabular Data for February 10, 2021
Time Temperature Dew Point Pressure Wind Wind Speed Wind Gust Humidity Rainfall Rate (Hourly) solar
00:04 11.9 °C 10.8 °C 1022.9 hPa WSW 3.2 km/h 8 km/h 90% 0 mm 0 W/m2
00:09 11.9 °C 10.8 °C 1022.9 hPa WSW 5.1 km/h 9.7 km/h 90% 0 mm 0 W/m2
00:14 11.9 °C 10.8 °C 1022.9 hPa WSW 3.9 km/h 9.7 km/h 90% 0 mm 0 W/m2
00:19 11.9 °C 10.8 °C 1022.6 hPa WSW 1.9 km/h 9.7 km/h 90% 0 mm 0 W/m2
00:24 11.9 °C 10.8 °C 1022.6 hPa WSW 3.4 km/h 11.3 km/h 90% 0 mm 0 W/m2
00:29 11.9 °C 10.8 °C 1022.6 hPa WSW 1.3 km/h 4.8 km/h 90% 0 mm 0 W/m2
00:34 12 °C 10.9 °C 1022.6 hPa WSW 1.9 km/h 6.4 km/h 90% 0 mm 0 W/m2
00:39 12 °C 10.9 °C 1022.6 hPa WSW 0.3 km/h 6.4 km/h 90% 0 mm 0 W/m2
00:43 12 °C 10.9 °C 1022.6 hPa Calm   3.2 km/h 90% 0 mm 0 W/m2
00:49 12 °C 10.9 °C 1022.6 hPa WSW 0.6 km/h 4.8 km/h 90% 0 mm 0 W/m2
00:54 12 °C 10.9 °C 1022.2 hPa WSW 0.6 km/h 4.8 km/h 90% 0 mm 0 W/m2
00:59 11.9 °C 10.8 °C 1022.2 hPa WSW 1.9 km/h 4.8 km/h 90% 0 mm 0 W/m2
01:04 12 °C 10.9 °C 1022.2 hPa WSW 3.7 km/h 8 km/h 90.2% 0 mm 0 W/m2
01:09 12 °C 11 °C 1022.2 hPa WSW 3.1 km/h 6.4 km/h 90.6% 0 mm 0 W/m2
01:14 12 °C 11.1 °C 1022.2 hPa WSW 2.6 km/h 6.4 km/h 91% 0 mm 0 W/m2
01:19 12 °C 11.1 °C 1022.2 hPa WSW 3.9 km/h 6.4 km/h 91% 0 mm 0 W/m2
01:24 12.1 °C 11.2 °C 1022.2 hPa WSW 3.1 km/h 6.4 km/h 91% 0 mm 0 W/m2
01:29 12.1 °C 11.2 °C 1022.2 hPa WSW 3.2 km/h 9.7 km/h 91% 0 mm 0 W/m2
01:34 12.1 °C 11.2 °C 1022.2 hPa WSW 1.3 km/h 4.8 km/h 91% 0 mm 0 W/m2
01:39 12.1 °C 11.2 °C 1022.2 hPa WSW 2.3 km/h 6.4 km/h 91% 0 mm 0 W/m2
01:44 12.1 °C 11.2 °C 1022.2 hPa WSW 1 km/h 4.8 km/h 91% 0 mm 0 W/m2
01:49 12.1 °C 11.2 °C 1022.2 hPa WSW 2.9 km/h 4.8 km/h 91% 0 mm 0 W/m2
01:54 12.1 °C 11.2 °C 1022.2 hPa WSW 2.9 km/h 6.4 km/h 91% 0 mm 0 W/m2
01:59 12.1 °C 11.2 °C 1022.2 hPa WSW 4 km/h 6.4 km/h 91% 0 mm 0 W/m2
02:04 12.1 °C 11.2 °C 1021.9 hPa WSW 3.2 km/h 8 km/h 91% 0 mm 0 W/m2
02:09 12.1 °C 11.2 °C 1021.9 hPa WSW 3.9 km/h 9.7 km/h 91% 0 mm 0 W/m2
02:14 12.1 °C 11.2 °C 1021.9 hPa WSW 5.5 km/h 11.3 km/h 91% 0 mm 0 W/m2
02:19 12.1 °C 11.2 °C 1021.9 hPa WSW 3.1 km/h 8 km/h 91% 0 mm 0 W/m2
02:24 12.1 °C 11.2 °C 1021.9 hPa WSW 5.3 km/h 9.7 km/h 91% 0 mm 0 W/m2
02:29 12.1 °C 11.2 °C 1021.9 hPa WSW 4.8 km/h 12.9 km/h 91% 0 mm 0 W/m2
02:34 12.1 °C 11.2 °C 1021.9 hPa WSW 5.1 km/h 9.7 km/h 91% 0 mm 0 W/m2
02:39 12 °C 11.1 °C 1021.9 hPa WSW 3.9 km/h 9.7 km/h 91% 0 mm 0 W/m2
02:44 11.9 °C 11 °C 1021.9 hPa WSW 5.5 km/h 9.7 km/h 91% 0 mm 0 W/m2
02:49 11.9 °C 11 °C 1021.9 hPa WSW 2.6 km/h 8 km/h 91% 0 mm 0 W/m2
02:54 11.9 °C 11 °C 1021.9 hPa WSW 3.9 km/h 9.7 km/h 91% 0 mm 0 W/m2
02:59 11.9 °C 11 °C 1021.9 hPa WSW 3.2 km/h 6.4 km/h 91% 0 mm 0 W/m2
03:04 11.9 °C 11 °C 1021.9 hPa WSW 2.4 km/h 6.4 km/h 91% 0 mm 0 W/m2
03:09 11.8 °C 10.9 °C 1021.9 hPa WSW 2.9 km/h 4.8 km/h 91% 0 mm 0 W/m2
03:19 11.8 °C 10.9 °C 1021.6 hPa WSW 1.9 km/h 6.4 km/h 91% 0 mm 0 W/m2
03:24 11.8 °C 10.9 °C 1021.6 hPa WSW 0.3 km/h 4.8 km/h 91% 0 mm 0 W/m2
03:29 11.7 °C 10.8 °C 1021.6 hPa WSW 2.7 km/h 4.8 km/h 91% 0 mm 0 W/m2
03:34 11.7 °C 10.8 °C 1021.6 hPa WSW 4 km/h 9.7 km/h 91% 0 mm 0 W/m2
03:39 11.7 °C 10.8 °C 1021.6 hPa WSW 2.7 km/h 6.4 km/h 91.2% 0 mm 0 W/m2
03:44 11.6 °C 10.8 °C 1021.6 hPa WSW 2.9 km/h 6.4 km/h 92% 0 mm 0 W/m2
03:49 11.5 °C 10.7 °C 1021.9 hPa WSW 1.6 km/h 4.8 km/h 92% 0 mm 0 W/m2
03:54 11.4 °C 10.6 °C 1021.9 hPa WSW 2.6 km/h 4.8 km/h 92% 0 mm 0 W/m2
03:59 11.4 °C 10.6 °C 1021.6 hPa WSW 1.9 km/h 4.8 km/h 92% 0 mm 0 W/m2
04:04 11.4 °C 10.6 °C 1021.6 hPa WSW 2.7 km/h 4.8 km/h 92% 0 mm 0 W/m2
04:09 11.4 °C 10.6 °C 1021.9 hPa WSW 1.9 km/h 6.4 km/h 92% 0 mm 0 W/m2
04:14 11.4 °C 10.6 °C 1021.9 hPa WSW 3.9 km/h 6.4 km/h 92% 0 mm 0 W/m2
04:19 11.4 °C 10.6 °C 1021.9 hPa WSW 2.7 km/h 6.4 km/h 92% 0 mm 0 W/m2
04:24 11.4 °C 10.6 °C 1021.6 hPa WSW 3.2 km/h 6.4 km/h 92% 0 mm 0 W/m2
04:29 11.4 °C 10.7 °C 1021.6 hPa WSW 1.9 km/h 6.4 km/h 92% 0 mm 0 W/m2
04:34 11.5 °C 10.7 °C 1021.9 hPa WSW 0.3 km/h 4.8 km/h 92% 0 mm 0 W/m2
04:39 11.4 °C 10.7 °C 1021.9 hPa WSW 1.6 km/h 4.8 km/h 92% 0 mm 0 W/m2
04:44 11.5 °C 10.7 °C 1021.9 hPa WSW 2.3 km/h 6.4 km/h 92% 0 mm 0 W/m2
04:49 11.4 °C 10.6 °C 1021.9 hPa WSW 3.4 km/h 4.8 km/h 92% 0 mm 0 W/m2
04:54 11.4 °C 10.6 °C 1021.9 hPa WSW 1.1 km/h 6.4 km/h 92% 0 mm 0 W/m2
04:59 11.4 °C 10.7 °C 1021.9 hPa WSW 0.6 km/h 3.2 km/h 92.2% 0 mm 0 W/m2
05:03 11.4 °C 10.7 °C 1021.9 hPa WSW 0.3 km/h 4.8 km/h 92.5% 0 mm 0 W/m2
05:09 11.4 °C 10.8 °C 1021.9 hPa WSW 0.8 km/h 4.8 km/h 93% 0 mm 0 W/m2
05:14 11.4 °C 10.8 °C 1021.9 hPa WSW 0.3 km/h 4.8 km/h 93% 0 mm 0 W/m2
05:19 11.4 °C 10.8 °C 1022.2 hPa Calm   3.2 km/h 93% 0 mm 0 W/m2
05:24 11.4 °C 10.8 °C 1022.2 hPa Calm   1.6 km/h 93% 0 mm 0 W/m2
05:29 11.4 °C 10.8 °C 1022.2 hPa Calm     93% 0 mm 0 W/m2
05:34 11.4 °C 10.8 °C 1022.2 hPa Calm   1.6 km/h 93% 0 mm 0 W/m2
05:39 11.4 °C 10.8 °C 1022.2 hPa Calm   1.6 km/h 93% 0 mm 0 W/m2
05:43 11.4 °C 10.8 °C 1022.2 hPa Calm   3.2 km/h 93% 0 mm 0 W/m2
05:49 11.4 °C 10.8 °C 1022.2 hPa Calm     93% 0 mm 0 W/m2
05:54 11.4 °C 10.8 °C 1022.2 hPa Calm     93% 0 mm 0 W/m2
05:59 11.4 °C 10.8 °C 1022.2 hPa Calm     93% 0 mm 0 W/m2
06:04 11.5 °C 10.9 °C 1022.2 hPa WSW 1 km/h 3.2 km/h 93% 0 mm 0 W/m2
06:09 11.5 °C 10.9 °C 1021.9 hPa Calm   3.2 km/h 93% 0 mm 0 W/m2
06:14 11.5 °C 10.9 °C 1021.9 hPa Calm     93% 0 mm 0 W/m2
06:19 11.6 °C 11 °C 1022.2 hPa Calm     93% 0 mm 0 W/m2
06:24 11.6 °C 11 °C 1022.2 hPa WSW 0.3 km/h 3.2 km/h 93% 0 mm 0 W/m2
06:28 11.6 °C 11 °C 1022.2 hPa WSW 0.3 km/h 1.6 km/h 93% 0 mm 0 W/m2
06:34 11.6 °C 11 °C 1022.2 hPa WSW 0.6 km/h 4.8 km/h 93% 0 mm 0 W/m2
06:39 11.6 °C 11 °C 1022.2 hPa WSW 1.9 km/h 4.8 km/h 93% 0 mm 0 W/m2
06:44 11.7 °C 11.1 °C 1022.2 hPa WSW 2.6 km/h 6.4 km/h 93% 0 mm 0 W/m2
06:49 11.7 °C 11.1 °C 1022.2 hPa WSW 2.6 km/h 4.8 km/h 93% 0 mm 0 W/m2
06:54 11.7 °C 11.1 °C 1022.2 hPa WSW 0.3 km/h 3.2 km/h 93% 0 mm 0 W/m2
06:59 11.7 °C 11.2 °C 1022.2 hPa Calm   3.2 km/h 93% 0 mm 0 W/m2
07:04 11.9 °C 11.3 °C 1022.2 hPa Calm     93% 0 mm 0 W/m2
07:09 11.9 °C 11.3 °C 1022.6 hPa Calm     93% 0 mm 0 W/m2
07:14 11.8 °C 11.2 °C 1022.6 hPa WSW 1 km/h 4.8 km/h 93% 0 mm 0 W/m2
07:19 11.8 °C 11.2 °C 1022.6 hPa WSW 2.6 km/h 6.4 km/h 93% 0 mm 0 W/m2
07:24 11.8 °C 11.2 °C 1022.6 hPa WSW 0.3 km/h 6.4 km/h 93% 0 mm 0 W/m2
07:29 11.8 °C 11.2 °C 1022.9 hPa Calm   3.2 km/h 93% 0 mm 0 W/m2
07:33 11.9 °C 11.3 °C 1022.9 hPa Calm     93% 0 mm 0 W/m2
07:39 12.1 °C 11.4 °C 1022.9 hPa Calm     93% 0 mm 0 W/m2
07:44 12.1 °C 11.5 °C 1022.9 hPa Calm     93% 0 mm 5 W/m2
07:49 12.4 °C 11.8 °C 1022.9 hPa Calm     93% 0 mm 7 W/m2
07:54 12.4 °C 11.8 °C 1023.2 hPa Calm   4.8 km/h 93% 0 mm 7 W/m2
07:59 12.2 °C 11.6 °C 1023.2 hPa Calm   3.2 km/h 93% 0 mm 9 W/m2
08:04 12.2 °C 11.6 °C 1023.2 hPa Calm     93% 0 mm 11 W/m2
08:09 12.1 °C 11.5 °C 1023.2 hPa WSW 0.6 km/h 3.2 km/h 93% 0 mm 19 W/m2
08:14 12.1 °C 11.4 °C 1023.2 hPa WSW 1.1 km/h 6.4 km/h 93% 0 mm 28 W/m2
08:19 12.1 °C 11.4 °C 1023.2 hPa WSW 0.6 km/h 4.8 km/h 93% 0 mm 32 W/m2
08:24 12 °C 11.4 °C 1023.2 hPa WSW 2.7 km/h 6.4 km/h 93% 0 mm 35 W/m2
08:29 12.1 °C 11.4 °C 1023.2 hPa WSW 0.6 km/h 4.8 km/h 93% 0 mm 49 W/m2
08:34 12.1 °C 11.5 °C 1023.2 hPa WSW 0.8 km/h 4.8 km/h 93% 0 mm 60 W/m2
08:39 12.1 °C 11.5 °C 1023.2 hPa WSW 1.9 km/h 4.8 km/h 93% 0 mm 58 W/m2
08:44 12.2 °C 11.6 °C 1023.2 hPa Calm   3.2 km/h 93% 0 mm 46 W/m2
08:49 12.3 °C 11.7 °C 1023.2 hPa Calm   1.6 km/h 93% 0 mm 40 W/m2
08:54 12.3 °C 11.7 °C 1023.6 hPa WSW 2.6 km/h 8 km/h 93% 0 mm 51 W/m2
08:59 12.2 °C 11.6 °C 1023.6 hPa WSW 1.4 km/h 4.8 km/h 93% 0 mm 62 W/m2
09:04 12.2 °C 11.6 °C 1023.6 hPa WSW 0.6 km/h 3.2 km/h 93% 0 mm 69 W/m2
09:09 12.3 °C 11.7 °C 1023.6 hPa WSW 0.6 km/h 4.8 km/h 93% 0.25 mm 70 W/m2
09:13 12.4 °C 11.8 °C 1023.6 hPa WSW 4 km/h 6.4 km/h 93% 0.25 mm 69 W/m2
09:19 12.4 °C 11.8 °C 1023.6 hPa WSW 0.3 km/h 4.8 km/h 93% 0.25 mm 86 W/m2
09:24 12.4 °C 11.8 °C 1023.6 hPa WSW 1 km/h 6.4 km/h 93% 0.25 mm 123 W/m2
09:29 12.6 °C 11.9 °C 1023.6 hPa WSW 4.2 km/h 8 km/h 93% 0.25 mm 214 W/m2
09:34 12.7 °C 12.2 °C 1023.6 hPa WSW 2.4 km/h 9.7 km/h 93% 0.25 mm 285 W/m2
09:39 12.8 °C 12.2 °C 1023.6 hPa WSW 5.5 km/h 9.7 km/h 93% 0.25 mm 183 W/m2
09:44 12.8 °C 12.2 °C 1023.6 hPa WSW 4.7 km/h 8 km/h 93% 0.25 mm 135 W/m2
09:49 12.8 °C 12.3 °C 1023.2 hPa WSW 5.1 km/h 9.7 km/h 93% 0.25 mm 107 W/m2
09:54 12.9 °C 12.3 °C 1023.2 hPa WSW 1.8 km/h 8 km/h 92.8% 0.25 mm 186 W/m2
09:59 13 °C 12.2 °C 1023.2 hPa WSW 4.8 km/h 9.7 km/h 92% 0.25 mm 100 W/m2
10:04 12.9 °C 12.1 °C 1023.2 hPa WSW 5.3 km/h 12.9 km/h 92% 0.25 mm 109 W/m2
10:09 12.9 °C 12.1 °C 1023.6 hPa WSW 5.5 km/h 11.3 km/h 92% 0.25 mm 123 W/m2
10:14 12.9 °C 12.1 °C 1023.6 hPa WSW 4.5 km/h 9.7 km/h 92% 0 mm 111 W/m2
10:19 12.9 °C 12.1 °C 1023.6 hPa WSW 2.1 km/h 6.4 km/h 91.4% 0 mm 109 W/m2
10:24 13.1 °C 12.1 °C 1023.6 hPa WSW 1.9 km/h 4.8 km/h 91% 0 mm 86 W/m2
10:29 13.2 °C 12.4 °C 1023.6 hPa WSW 0.6 km/h 3.2 km/h 91.6% 0 mm 74 W/m2
10:34 13.2 °C 12.3 °C 1023.6 hPa WSW 3.2 km/h 8 km/h 91% 0 mm 62 W/m2
10:39 13.2 °C 12.3 °C 1023.6 hPa WSW 3.1 km/h 6.4 km/h 91% 0 mm 60 W/m2
10:44 13.2 °C 12.3 °C 1023.6 hPa WSW 4.3 km/h 8 km/h 91% 0 mm 60 W/m2
10:49 13.2 °C 12.3 °C 1023.6 hPa WSW 4 km/h 8 km/h 91% 0 mm 62 W/m2
10:54 13.2 °C 12.3 °C 1023.6 hPa WSW 7.1 km/h 9.7 km/h 91% 0 mm 67 W/m2
10:59 13.2 °C 12.2 °C 1023.6 hPa WSW 3.9 km/h 9.7 km/h 91% 0 mm 77 W/m2
11:04 13.2 °C 12.2 °C 1023.6 hPa WSW 4.5 km/h 6.4 km/h 90.4% 0 mm 79 W/m2
11:09 13.2 °C 12.1 °C 1023.6 hPa WSW 3.2 km/h 6.4 km/h 90% 0 mm 77 W/m2
11:14 13.2 °C 12.1 °C 1023.6 hPa WSW 3.2 km/h 6.4 km/h 90% 0 mm 98 W/m2
11:19 13.2 °C 12.1 °C 1023.6 hPa WSW 3.9 km/h 9.7 km/h 90% 0 mm 113 W/m2
11:24 13.2 °C 12.1 °C 1023.6 hPa WSW 3.7 km/h 9.7 km/h 90% 0 mm 162 W/m2
11:29 13.3 °C 12.2 °C 1023.2 hPa WSW 3.5 km/h 8 km/h 90% 0 mm 158 W/m2
11:33 13.3 °C 12.2 °C 1023.2 hPa WSW 4.8 km/h 9.7 km/h 90% 0 mm 193 W/m2
11:39 13.5 °C 12.4 °C 1023.2 hPa WSW 2.1 km/h 4.8 km/h 90% 0 mm 155 W/m2
11:44 13.6 °C 12.4 °C 1023.2 hPa WSW 5.6 km/h 9.7 km/h 90% 0 mm 127 W/m2
11:49 13.5 °C 12.4 °C 1023.2 hPa WSW 2.6 km/h 9.7 km/h 90% 0 mm 181 W/m2
11:54 13.6 °C 12.5 °C 1023.2 hPa WSW 5.3 km/h 9.7 km/h 90% 0 mm 181 W/m2
11:59 13.6 °C 12.5 °C 1023.2 hPa WSW 4 km/h 9.7 km/h 90% 0 mm 185 W/m2
12:04 13.6 °C 12.3 °C 1022.9 hPa WSW 4.2 km/h 9.7 km/h 89% 0 mm 257 W/m2
12:09 13.6 °C 12.3 °C 1022.9 hPa WSW 4.3 km/h 8 km/h 89% 0 mm 195 W/m2
12:14 13.7 °C 12.4 °C 1022.9 hPa WSW 4.5 km/h 9.7 km/h 89% 0 mm 237 W/m2
12:19 13.7 °C 12.3 °C 1022.9 hPa WSW 4.3 km/h 9.7 km/h 89% 0 mm 188 W/m2
12:24 13.6 °C 12.3 °C 1022.9 hPa WSW 5.6 km/h 12.9 km/h 89% 0 mm 190 W/m2
12:29 13.4 °C 12.1 °C 1022.9 hPa WSW 5.3 km/h 9.7 km/h 88.8% 0 mm 181 W/m2
12:34 13.6 °C 12.3 °C 1022.9 hPa WSW 3.7 km/h 8 km/h 89% 0 mm 149 W/m2
12:39 13.6 °C 12.3 °C 1022.9 hPa WSW 4.8 km/h 9.7 km/h 89% 0 mm 148 W/m2
12:44 13.6 °C 12.3 °C 1022.9 hPa WSW 7.1 km/h 11.3 km/h 89% 0 mm 151 W/m2
12:49 13.5 °C 12.2 °C 1022.9 hPa WSW 5.8 km/h 12.9 km/h 89% 0 mm 134 W/m2
12:54 13.4 °C 12.2 °C 1022.9 hPa WSW 4.7 km/h 8 km/h 89% 0 mm 113 W/m2
12:58 13.5 °C 12.2 °C 1022.9 hPa WSW 3.5 km/h 8 km/h 89% 0 mm 104 W/m2
13:04 13.5 °C 12.2 °C 1022.9 hPa WSW 3.9 km/h 9.7 km/h 89% 0 mm 88 W/m2
13:09 13.6 °C 12.3 °C 1022.9 hPa WSW 4.2 km/h 8 km/h 89% 0 mm 105 W/m2
13:14 13.6 °C 12.3 °C 1022.9 hPa WSW 3.5 km/h 6.4 km/h 89% 0 mm 113 W/m2
13:19 13.6 °C 12.3 °C 1022.9 hPa WSW 4 km/h 6.4 km/h 89% 0 mm 100 W/m2
13:24 13.7 °C 12.4 °C 1022.9 hPa WSW 3.5 km/h 8 km/h 89% 0 mm 88 W/m2
13:29 13.7 °C 12.3 °C 1022.9 hPa WSW 3.5 km/h 8 km/h 89% 0 mm 90 W/m2
13:34 13.6 °C 12.3 °C 1022.9 hPa WSW 3.1 km/h 6.4 km/h 88.8% 0 mm 81 W/m2
13:39 13.7 °C 12.3 °C 1022.9 hPa WSW 5 km/h 9.7 km/h 88.6% 0 mm 63 W/m2
13:44 13.6 °C 12.2 °C 1022.9 hPa WSW 4.7 km/h 8 km/h 88.4% 0 mm 53 W/m2
13:49 13.6 °C 12.2 °C 1022.6 hPa WSW 3.4 km/h 8 km/h 88.6% 0 mm 51 W/m2
13:54 13.6 °C 12.3 °C 1022.6 hPa WSW 3.4 km/h 6.4 km/h 89% 0 mm 42 W/m2
13:59 13.6 °C 12.3 °C 1022.6 hPa WSW 3.5 km/h 6.4 km/h 89% 0 mm 37 W/m2
14:04 13.6 °C 12.3 °C 1022.6 hPa WSW 4 km/h 8 km/h 89% 0 mm 40 W/m2
14:09 13.6 °C 12.3 °C 1022.6 hPa WSW 3.4 km/h 8 km/h 89% 0 mm 51 W/m2
14:14 13.6 °C 12.3 °C 1022.6 hPa WSW 3.5 km/h 6.4 km/h 89% 0 mm 47 W/m2
14:19 13.6 °C 12.3 °C 1022.6 hPa WSW 3.4 km/h 6.4 km/h 89% 0 mm 47 W/m2
14:24 13.6 °C 12.3 °C 1022.6 hPa WSW 3.1 km/h 6.4 km/h 89% 0 mm 44 W/m2
14:29 13.6 °C 12.3 °C 1022.6 hPa WSW 2.1 km/h 6.4 km/h 89% 0 mm 42 W/m2
14:34 13.6 °C 12.3 °C 1022.6 hPa WSW 1.4 km/h 3.2 km/h 89% 0 mm 58 W/m2
14:39 13.6 °C 12.3 °C 1022.6 hPa WSW 0.3 km/h 3.2 km/h 89% 0 mm 65 W/m2
14:44 13.6 °C 12.3 °C 1022.6 hPa WSW 1.1 km/h 3.2 km/h 89% 0 mm 56 W/m2
14:49 13.6 °C 12.3 °C 1022.6 hPa WSW 1.4 km/h 4.8 km/h 89% 0 mm 47 W/m2
14:54 13.6 °C 12.3 °C 1022.6 hPa WSW 2.6 km/h 4.8 km/h 89% 0 mm 40 W/m2
14:59 13.6 °C 12.3 °C 1022.6 hPa WSW 1.9 km/h 4.8 km/h 89% 0 mm 49 W/m2
15:04 13.6 °C 12.3 °C 1022.6 hPa WSW 1.6 km/h 3.2 km/h 89% 0 mm 47 W/m2
15:09 13.6 °C 12.3 °C 1022.6 hPa WSW 2.1 km/h 4.8 km/h 89% 0 mm 40 W/m2
15:14 13.6 °C 12.3 °C 1022.6 hPa WSW 1 km/h 3.2 km/h 89% 0 mm 33 W/m2
15:19 13.7 °C 12.3 °C 1022.6 hPa WSW 0.3 km/h 3.2 km/h 89% 0 mm 30 W/m2
15:24 13.7 °C 12.3 °C 1022.6 hPa WSW 0.6 km/h 4.8 km/h 88.4% 0 mm 33 W/m2
15:27 13.7 °C 12.2 °C 1022.6 hPa WSW 2.1 km/h 4.8 km/h 88% 0 mm 23 W/m2
15:34 13.7 °C 12.2 °C 1022.6 hPa WSW 2.6 km/h 6.4 km/h 88% 0 mm 18 W/m2
15:39 13.7 °C 12.2 °C 1022.6 hPa WSW 3.9 km/h 6.4 km/h 88% 0 mm 19 W/m2
15:44 13.7 °C 12.2 °C 1022.9 hPa WSW 2.4 km/h 4.8 km/h 88% 0 mm 19 W/m2
15:49 13.6 °C 12.1 °C 1022.9 hPa WSW 1.3 km/h 4.8 km/h 88% 0 mm 12 W/m2
15:54 13.7 °C 12.2 °C 1022.9 hPa Calm   1.6 km/h 88% 0 mm 9 W/m2
15:59 13.7 °C 12.2 °C 1022.9 hPa Calm     88% 0 mm 7 W/m2
16:04 13.7 °C 12.2 °C 1022.9 hPa WSW 0.3 km/h 3.2 km/h 88% 0 mm 5 W/m2
16:09 13.7 °C 12.2 °C 1022.9 hPa WSW 1.1 km/h 3.2 km/h 88% 0 mm 0 W/m2
16:14 13.7 °C 12.2 °C 1022.9 hPa WSW 1.1 km/h 4.8 km/h 88% 0 mm 0 W/m2
16:19 13.7 °C 12.2 °C 1022.9 hPa WSW 0.3 km/h 3.2 km/h 88% 0 mm 0 W/m2
16:24 13.6 °C 12.2 °C 1022.9 hPa WSW 1.6 km/h 6.4 km/h 88.4% 0 mm 0 W/m2
16:29 13.6 °C 12.3 °C 1022.9 hPa WSW 0.6 km/h 4.8 km/h 89% 0 mm 0 W/m2
16:34 13.6 °C 12.3 °C 1022.9 hPa WSW 0.3 km/h 1.6 km/h 89% 0 mm 0 W/m2
16:39 13.6 °C 12.2 °C 1022.9 hPa Calm     89% 0 mm 0 W/m2
16:44 13.5 °C 12.2 °C 1022.9 hPa Calm     89% 0 mm 0 W/m2
16:49 13.5 °C 12.2 °C 1022.9 hPa Calm     89% 0 mm 0 W/m2
16:54 13.4 °C 12.1 °C 1023.2 hPa Calm     89% 0 mm 0 W/m2
16:59 13.4 °C 12.1 °C 1023.2 hPa Calm     89% 0 mm 0 W/m2
17:04 13.4 °C 12.1 °C 1023.2 hPa Calm     89% 0 mm 0 W/m2
17:09 13.4 °C 12.1 °C 1023.2 hPa Calm     89% 0 mm 0 W/m2
17:14 13.4 °C 12.1 °C 1023.2 hPa Calm     89% 0 mm 0 W/m2
17:19 13.3 °C 12.1 °C 1023.2 hPa Calm     89.4% 0 mm 0 W/m2
17:24 13.3 °C 12.2 °C 1023.6 hPa WSW 1.4 km/h 3.2 km/h 90% 0 mm 0 W/m2
17:29 13.3 °C 12.2 °C 1023.6 hPa Calm   3.2 km/h 90% 0 mm 0 W/m2
17:34 13.2 °C 12.1 °C 1023.6 hPa Calm     90% 0 mm 0 W/m2
17:39 13.2 °C 12.1 °C 1023.6 hPa Calm     90% 0 mm 0 W/m2
17:44 13.2 °C 12.1 °C 1023.6 hPa Calm     90% 0 mm 0 W/m2
17:49 13.2 °C 12.1 °C 1023.6 hPa Calm     90% 0 mm 0 W/m2
17:54 13.2 °C 12.1 °C 1023.6 hPa Calm   1.6 km/h 90% 0 mm 0 W/m2
17:59 13.2 °C 12.1 °C 1023.6 hPa WSW 1.9 km/h 3.2 km/h 90% 0 mm 0 W/m2
18:04 13.1 °C 12 °C 1023.6 hPa Calm   3.2 km/h 90% 0 mm 0 W/m2
18:09 13.1 °C 12 °C 1023.6 hPa Calm     90% 0 mm 0 W/m2
18:14 13.1 °C 12.1 °C 1023.6 hPa Calm   1.6 km/h 90.6% 0 mm 0 W/m2
18:19 13.1 °C 12.2 °C 1023.6 hPa WSW 0.6 km/h 3.2 km/h 91% 0 mm 0 W/m2
18:23 13 °C 12.1 °C 1023.6 hPa WSW 0.8 km/h 4.8 km/h 91% 0 mm 0 W/m2
18:29 12.9 °C 12.1 °C 1023.6 hPa Calm     91% 0 mm 0 W/m2
18:34 12.9 °C 12 °C 1023.6 hPa Calm     91% 0 mm 0 W/m2
18:39 12.9 °C 12 °C 1023.6 hPa Calm     91% 0 mm 0 W/m2
18:44 12.8 °C 11.9 °C 1023.6 hPa Calm     91% 0 mm 0 W/m2
18:49 12.8 °C 11.9 °C 1023.6 hPa Calm     91% 0 mm 0 W/m2
18:54 12.8 °C 11.9 °C 1023.6 hPa Calm     91% 0 mm 0 W/m2
18:59 12.8 °C 11.8 °C 1023.6 hPa Calm     91% 0 mm 0 W/m2
19:04 12.7 °C 11.8 °C 1023.6 hPa Calm     91% 0 mm 0 W/m2
19:09 12.7 °C 11.8 °C 1023.6 hPa Calm     91% 0 mm 0 W/m2
19:14 12.6 °C 11.7 °C 1023.9 hPa Calm     91% 0 mm 0 W/m2
19:19 12.6 °C 11.7 °C 1023.9 hPa Calm     91% 0 mm 0 W/m2
19:24 12.6 °C 11.7 °C 1023.9 hPa Calm     91% 0 mm 0 W/m2
19:29 12.6 °C 11.7 °C 1023.9 hPa Calm     91% 0 mm 0 W/m2
19:34 12.5 °C 11.6 °C 1023.9 hPa Calm     91% 0 mm 0 W/m2
19:38 12.5 °C 11.6 °C 1023.9 hPa Calm     91% 0 mm 0 W/m2
19:44 12.5 °C 11.6 °C 1023.6 hPa Calm     91% 0 mm 0 W/m2
19:49 12.5 °C 11.6 °C 1023.6 hPa Calm     91% 0 mm 0 W/m2
19:54 12.4 °C 11.5 °C 1023.6 hPa Calm     91% 0 mm 0 W/m2
19:58 12.4 °C 11.5 °C 1023.6 hPa Calm     91% 0 mm 0 W/m2
20:04 12.3 °C 11.6 °C 1023.6 hPa Calm     92% 0 mm 0 W/m2
20:09 12.3 °C 11.4 °C 1023.6 hPa Calm     91.6% 0 mm 0 W/m2
20:14 12.3 °C 11.5 °C 1023.6 hPa Calm     92% 0 mm 0 W/m2
20:19 12.2 °C 11.4 °C 1023.6 hPa Calm     92% 0 mm 0 W/m2
20:23 12.2 °C 11.4 °C 1023.6 hPa Calm     92% 0 mm 0 W/m2
20:29 12.2 °C 11.4 °C 1023.6 hPa Calm     92% 0 mm 0 W/m2
20:34 12.2 °C 11.4 °C 1023.6 hPa Calm     92% 0 mm 0 W/m2
20:39 12.2 °C 11.4 °C 1023.6 hPa Calm     92% 0 mm 0 W/m2
20:44 12.2 °C 11.4 °C 1023.2 hPa Calm     92% 0 mm 0 W/m2
20:49 12.2 °C 11.4 °C 1023.6 hPa Calm     92% 0 mm 0 W/m2
20:54 12.2 °C 11.4 °C 1023.6 hPa Calm     92% 0 mm 0 W/m2
20:59 12.2 °C 11.4 °C 1023.6 hPa Calm     92% 0 mm 0 W/m2
21:04 12.2 °C 11.4 °C 1023.6 hPa WSW 0.3 km/h 3.2 km/h 92% 0 mm 0 W/m2
21:09 12.2 °C 11.3 °C 1023.6 hPa Calm   3.2 km/h 92% 0 mm 0 W/m2
21:14 12.1 °C 11.3 °C 1023.6 hPa Calm     92% 0 mm 0 W/m2
21:18 12.1 °C 11.3 °C 1023.6 hPa Calm     92% 0 mm 0 W/m2
21:24 12.1 °C 11.3 °C 1023.6 hPa Calm     92% 0 mm 0 W/m2
21:29 12 °C 11.2 °C 1023.6 hPa Calm     92% 0 mm 0 W/m2
21:34 11.9 °C 11.1 °C 1023.6 hPa Calm     92% 0 mm 0 W/m2
21:39 11.9 °C 11.1 °C 1023.6 hPa Calm     92% 0 mm 0 W/m2
21:44 11.9 °C 11.1 °C 1023.6 hPa Calm     92% 0 mm 0 W/m2
21:49 11.8 °C 11 °C 1023.6 hPa Calm     92% 0 mm 0 W/m2
21:53 11.8 °C 11 °C 1023.6 hPa Calm     92% 0 mm 0 W/m2
21:59 11.8 °C 11 °C 1023.2 hPa Calm     92% 0 mm 0 W/m2
22:04 11.8 °C 11 °C 1023.2 hPa Calm     92% 0 mm 0 W/m2
22:09 11.8 °C 11 °C 1023.2 hPa Calm     92% 0 mm 0 W/m2
22:14 11.8 °C 11 °C 1023.2 hPa Calm     92% 0 mm 0 W/m2
22:19 11.7 °C 11.1 °C 1023.2 hPa Calm     93% 0 mm 0 W/m2
22:24 11.6 °C 10.8 °C 1023.2 hPa Calm     92.2% 0 mm 0 W/m2
22:29 11.6 °C 10.8 °C 1023.2 hPa Calm     92% 0 mm 0 W/m2
22:34 11.6 °C 10.9 °C 1023.2 hPa Calm     92.6% 0 mm 0 W/m2
22:39 11.6 °C 11 °C 1023.2 hPa Calm     93% 0 mm 0 W/m2
22:43 11.6 °C 11 °C 1023.2 hPa Calm     93% 0 mm 0 W/m2
22:49 11.6 °C 11 °C 1023.2 hPa Calm     93% 0 mm 0 W/m2
22:54 11.6 °C 11 °C 1023.2 hPa Calm     93% 0 mm 0 W/m2
22:59 11.6 °C 11 °C 1023.2 hPa Calm     93% 0 mm 0 W/m2
23:04 11.6 °C 11 °C 1023.2 hPa Calm     93% 0 mm 0 W/m2
23:09 11.6 °C 11 °C 1023.2 hPa Calm     93% 0 mm 0 W/m2
23:14 11.7 °C 11.1 °C 1023.6 hPa Calm     93% 0 mm 0 W/m2
23:17 11.7 °C 11.1 °C 1023.6 hPa Calm     93% 0 mm 0 W/m2
23:24 11.7 °C 11.1 °C 1023.6 hPa Calm     93% 0 mm 0 W/m2
23:29 11.7 °C 11.1 °C 1023.6 hPa Calm     93% 0 mm 0 W/m2
23:34 11.8 °C 11.2 °C 1023.6 hPa Calm     93% 0 mm 0 W/m2
23:39 11.8 °C 11.2 °C 1023.6 hPa Calm     93% 0 mm 0 W/m2
23:44 11.8 °C 11.2 °C 1023.6 hPa Calm     93% 0 mm 0 W/m2
23:49 11.8 °C 11.2 °C 1023.6 hPa Calm     93% 0 mm 0 W/m2
23:54 11.8 °C 11.2 °C 1023.6 hPa Calm     93% 0 mm 0 W/m2
23:59 11.8 °C 11.2 °C 1023.6 hPa Calm     93% 0 mm 0 W/m2
Bath Spa Weather
Compliments of Weather Underground - 2 mb